Volver al catálogo

NAJM-1

ActivoCienciaSSO
NORAD 47947·PAYLOAD·🇸🇦 Saudi Arabia
Este nombre de satélite aún no ha sido confirmado por fuentes oficiales.

Lanzado Mar 22, 2021 desde Baikonur Cosmodrome

Loading…

Próximos Pases (próximas 24 horas)

TLE

ActualizadoSource: Space-Track

Época: Sep 14, 2026, 14:39 UTC

1 47947U 21022R   26257.61044453 -.00000561  00000-0 -31526-4 0  9992
2 47947  97.3421 129.4497 0016187 221.2186 138.7823 15.09049274301490

Sigue NAJM-1 en tiempo real con AllMySat

Download on the App Store